Flag for Canada Weather past 2 weeks in Drummondville, Quebec, Canada

Now
60 °F

Refreshingly cool.


Feels Like: 59 °F
Forecast: 56 / 78 °F
Wind: 7 mph from South

Location: Nicolet

Current Time: May 4, 2015 at 6:10:28 AM

Latest Report: May 4, 2015 at 5:00 AM


Visibility: N/A

Pressure: 30.00 "Hg

Humidity: 55%

Dew point: 43 °F

Location of DrummondvilleLocation

Historic Weather in Drummondville — Graph

°F

Drummondville temperature yesterday

Maximum temperature yesterday: 75 °F (at 6:00 PM)
Minimum temperature yesterday: 47 °F (at 6:00 AM)
Average temperature yesterday: 59 °F

Past Weeks' High & Low Weather Summary

 TemperatureHumidityPressure
High75 °F (May 3, 6:00 PM)100% (Apr 23, 4:00 AM)30.33 "Hg (Apr 23, 4:00 AM)
Low33 °F (Apr 24, 10:00 AM)21% (May 2, 6:00 PM)29.46 "Hg (Apr 23, 5:00 AM)
Average47 °F70%29.81 "Hg
* Reported Apr 19 4:00 AM — May 4 4:00 AM, Drummondville, Weather by CustomWeather, © 2015

Note: Actual official high and low records may vary slightly from our data, if they occured in-between our weather recording intervals... More about our weather records

Advertising

Drummondville weather history for previous 24 hours

 ConditionsComfort  
Time TempWeatherWind HumidityBarometerVisibility
4:00 AM
Mon, May 4
59 °FRefreshingly cool.6 mph53%29.99 "HgN/A
3:00 AM58 °FRefreshingly cool.5 mph59%30.00 "HgN/A
2:00 AM60 °FRefreshingly cool.3 mph58%30.00 "HgN/A
1:00 AM62 °FRefreshingly cool.6 mph55%29.99 "HgN/A
12:00 AM63 °FMild.6 mph53%29.98 "HgN/A
11:00 PM
Sun, May 3
65 °FMild.7 mph47%29.98 "HgN/A
10:00 PM66 °FMild.6 mph47%29.97 "HgN/A
9:00 PM67 °FMild.6 mph45%29.96 "HgN/A
8:00 PM69 °FMild.5 mph37%29.95 "HgN/A
7:00 PM73 °FMild.7 mph34%29.94 "HgN/A
6:00 PM75 °FMild.5 mph26%29.93 "HgN/A
5:00 PM75 °FMild.5 mph29%29.93 "HgN/A
4:00 PM74 °FMild.2 mph34%29.95 "HgN/A
3:00 PM67 °FMild.6 mph48%29.96 "HgN/A
2:00 PM64 °FMild.5 mph50%29.97 "HgN/A
1:00 PM61 °FRefreshingly cool.7 mph53%29.98 "HgN/A
12:00 PM61 °FRefreshingly cool.6 mph53%29.99 "HgN/A
11:00 AM58 °FRefreshingly cool.5 mph56%30.00 "HgN/A
10:00 AM57 °FRefreshingly cool.2 mph55%29.99 "HgN/A
9:00 AM52 °FCool.5 mph65%29.99 "HgN/A
8:00 AM49 °FCool.6 mph71%29.98 "HgN/A
7:00 AM47 °FCool.7 mph72%29.97 "HgN/A
6:00 AM47 °FCool.6 mph71%29.94 "HgN/A
Weather by CustomWeather, © 2015

See weather overviewHow to use our weather pages